Showing default

ION SCV-013, 58300

Orbit data source: Space-Track

ION SCV-013, 58300 is a payload satellite owned by D-ORBIT (IT) in SSO that was launched on Sat, 11 Nov 2023 UTC via an FALCON 9 launch vehicle from the Air Force Western Test Range (AFWTR). Payload-class satellites include a variety of spacecraft equipped with specific instruments for various scientific and technological missions. These include communications satellites like Starlink; space stations such as the ISS; scientific satellites like the Hubble; Earth observation satellites from companies like Planet Labs, Umbra, and HawkEye 360; GPS; miniature CubeSats for education and research; and military/defense satellites.

Loading next visibility...
Identifier
58300, 2023-174AW
Orbit
SSO
Last TLE update
8 hours ago
Origin
Manufacturer
D-ORBIT
Mission
Operational Commercial Technology
Bus & Motor
ION-SC, PM200
Mass
220 kg wet, 150 kg dry
Launch date (UTC)
2023-11-11 (2 years ago)
Launch vehicle
FALCON 9
Launch site
Air Force Western Test Range (AFWTR)
Object type
Payload
Rocket body
Debris
Shape & HBR
Box, 0.2 m
Radar Cross Section
0.240 m², Medium (>0.1 m² and < 1m²)

Expand to show TLE details & history

TLE from 8 hours ago
0 ION SCV-013
1 58300U 23174AW  25211.15821446  .00000356  00000-0  58612-4 0  9995
2 58300  97.6723 266.8096 0010253 332.4398  27.6268 14.75969870 93258
Epoch: 2025-07-30T03:47Z
TLE epoch observation values (Epoch: 2025-07-30T03:47:49.729Z)
Latitude
0.00003°
Longitude
-98.18907°
Altitude
638.72 km
Speed
7.542 km/s
True Right ascension
17h 47m 14s
True Declination
0° 00' 00"
Sunlit
Object was in full shadow at epoch
Visualization orbit readout
Latitude
-32.40038°
Longitude
-92.99532°
Altitude
647.12 km
Speed
7.537 km/s
Apparent Right ascension
15h 59m 59s
Apparent Declination
-41° 38' 44"
Sunlit
Object is in full shadow
Visualization observer readout
Local Sidereal Time
01:20:07
Azimuth
253.501° W
Elevation
-59.96°
Doppler factor
1
Orbital elements
Apogee altitude
646.305 km
Perigee altitude
631.916 km
Semi-major axis
7,017.247 km
Eccentricity
0.00103
Inclination
97.6723°
RAAN
266.8096°
Arg. of periapsis
332.4398°
True anomaly
27.68134°
Mean anomaly
27.6268°
Eccentric anomaly
27.65407°
Mean motion
3.69227 °/min
Orbital period
97.5 mins
BSTAR
0.000058612
Loading maneuver chart data...
Loading SW <> Apogee altitude chart data...
Loading historical data...
Loading historical data...
Loading historical data...
Loading historical data...
Loading historical data...
Loading historical data...
Loading historical data...
|